Location: Unspecified
(0.0000°N, 0.0000°E)
Time: 19:35:10
(UTC+00:00)

Envisat - Pass Details

Date: 04 June 2023
Orbit: 763 x 765 km, 98.2° (Epoch: 05 June)

Event Time Altitude Azimuth Distance (km) Brightness Sun altitude
Rises 03:41:51 0° 4° (N) 3,211 6.6 -31.2°
Reaches altitude 10° 03:44:11 10° 0° (N) 2,288 5.7 -30.7°
Enters shadow 03:46:28 27° 350° (N) 1,443 4.5 -30.2°
